Regional Weather Roundup
Issued by NWS

Home | Current Version | Previous Version | Text Only | Print | Product List | Glossary Off
Versions: 1 2 3 4 5 6 7 8 9 10 11 12 13 14 15 16 17 18 19 20 21 22 23 24 25 26 27 28 29 30 31 32 33 34 35 36 37 38 39 40 41 42 43 44 45 46 47 48

000
ASUS45 KBOU 262307
RWRCO

WEATHER ROUNDUP FOR COLORADO
NATIONAL WEATHER SERVICE DENVER/BOULDER CO
400 PM MST MON JAN 26 2015

NOTE: "FAIR" INDICATES FEW OR NO CLOUDS BELOW 12000 FEET WITH NO
SIGNIFICANT WEATHER AND/OR OBSTRUCTIONS TO VISIBILITY.

COZ001>005-013-030-031-270000-
...NORTHWEST COLORADO...

CITY           SKY/WX    TMP DP  RH WIND       PRES   REMARKS
CRAIG          SUNNY     40  26  57 CALM      30.34F
HAYDEN         SUNNY     39  25  56 SE5       30.34F
MEEKER         SUNNY     42  26  53 CALM      30.33F
MOUNT WERNER   NOT AVBL
STEAMBOAT SPGS SUNNY     40  26  55 CALM      30.35F
WALDEN         SUNNY     43  23  45 CALM      30.39S
$$

COZ006>008-011-270000-
...WEST CENTRAL VALLEYS...

CITY           SKY/WX    TMP DP  RH WIND       PRES   REMARKS
GRAND JUNCTION SUNNY     57  25  29 S8        30.25F
MONTROSE       SUNNY     56  24  29 CALM      30.30F
EAGLE          SUNNY     46  27  46 CALM      30.38F
RIFLE          SUNNY     55  25  31 S5        30.29F
DELTA          NOT AVBL
NUCLA          SUNNY     59  21  23 CALM      30.30F
$$

COZ017>023-064>068-270000-
...SOUTHWEST COLORADO...

CITY           SKY/WX    TMP DP  RH WIND       PRES   REMARKS
DURANGO        SUNNY     56  27  32 SW8       30.30S
CORTEZ         SUNNY     56  25  30 SW10      30.30S
PAGOSA SPRINGS SUNNY     60  15  17 SW3       30.34S
TELLURIDE      SUNNY     55  14  20 W6        30.40R
WOLF CREEK PAS NOT AVBL
$$

COZ009-010-012-014-032>034-037-058>063-270000-
...CENTRAL COLORADO...

CITY           SKY/WX    TMP DP  RH WIND       PRES   REMARKS
ASPEN          SUNNY     47  23  38 NW5       30.36S
BUENA VISTA    SUNNY     59  14  17 SE3       30.36S
COPPER MTN     SUNNY     45   9  23 W6        30.56S
BERTHOUD PASS  FAIR      32  28  86 NW7       30.59S WCI  26
COTTONWOOD PAS SUNNY     54   9  16 S7        30.45S
GUNNISON       SUNNY     25  16  68 CALM      30.47F
KREMMLING      SUNNY     32  21  64 CALM      30.44F
LEADVILLE      SUNNY     46  14  27 S7        30.43S
MONARCH PASS   SUNNY     37  10  32 E9        30.66S
SALIDA         SUNNY     59  19  21 SW8       30.41S
SUNLIGHT       SUNNY     43  12  28 E5        30.51S
WILKERSON PASS SUNNY     45  12  26 SW6       30.55S
$$

COZ069>075-270000-
...SAN LUIS VALLEY/SANGRE DE CRISTO MOUNTAINS...

CITY           SKY/WX    TMP DP  RH WIND       PRES   REMARKS
ALAMOSA        SUNNY     53  18  25 CALM      30.38F
LA VETA PASS   NOT AVBL
SAGUACHE       SUNNY     37  25  60 CALM      30.42S
$$

COZ035-036-038>040-270000-
...NORTHERN COLORADO FRONT RANGE...

CITY           SKY/WX    TMP DP  RH WIND       PRES   REMARKS
DENVER INTL AP SUNNY     69  19  15 CALM      30.21R
DMNS CITY PARK   N/A     69  17  13 SE3       30.20S
AURORA         MOSUNNY   66  19  16 SE2       30.23R
FRONT RANGE AP SUNNY     70  25  18 CALM      30.22
ERIE MUNI ARPT SUNNY     71  16  12 SE6       30.18S
BOULDER MUN AP SUNNY     70  21  16 SE7       30.18S
CENTENNIAL     MOSUNNY   66  20  17 SE5       30.23S
BROOMFIELD     SUNNY     70  19  14 SE7       30.22S
FORT COLLINS   SUNNY     72  27  18 S6        30.18S
LONGMONT       SUNNY     74  20  13 SE6       30.20R
$$

COZ041-046-047-076>085-087-088-270000-
...PIKES PEAK/PALMER DIVIDE AND SOUTHERN FOOTHILLS...

CITY           SKY/WX    TMP DP  RH WIND       PRES   REMARKS
COLO. SPRINGS  SUNNY     63  25  23 S8        30.28S
A. F. ACADEMY  SUNNY     62  20  20 CALM      30.28S
ELLICOTT       SUNNY    N/A N/A N/A MISG      30.27
FALCON         SUNNY     62  16  17 CALM      30.31S
FORT CARSON    NOT AVBL
LIMON          SUNNY     65  24  21 N5        30.22R
MONUMENT HILL  SUNNY     55  28  35 S5        30.29S
TRINIDAD       SUNNY     61  34  36 SE7       30.28S
$$

COZ042>045-048>051-090-091-270000-
...NORTHEAST COLORADO...

CITY           SKY/WX    TMP DP  RH WIND       PRES   REMARKS
GREELEY ARPT   SUNNY     70  28  21 SE7       30.14S
AKRON          CLEAR     62  31  31 W3        30.17S
BURLINGTON     CLEAR     65  33  30 N7        30.16S
WRAY           CLEAR     67  31  25 W3        30.13F
STERLING       CLEAR     68  36  30 N3        30.12F
HOLYOKE        CLEAR     68  30  24 N8        30.12S
FORT MORGAN    SUNNY     67  27  22 SE3       30.16S
$$

COZ086-089-092>099-270000-
...SOUTHEAST COLORADO...

CITY           SKY/WX    TMP DP  RH WIND       PRES   REMARKS
PUEBLO         SUNNY     69  22  16 CALM      30.20S
LA JUNTA       SUNNY     68  29  23 SW8       30.19F
LAMAR          SUNNY     68  31  25 W9        30.16S
SPRINGFIELD      N/A     65  27  23 NW12      30.21S
$$


USA.gov is the U.S. government's official web portal to all federal, state and local government web resources and services.